Temp
17 17 18 18 12 10 11 14 13 14 15 16 16 16 13 14 13 13 15 15 14 14 14 14 13 13 13 12 13 13 14 15 15 15 15 15 15 15 15 15 15 15 15 15 15 15 15 15 14
17 17 18 17 10 10 10 13 14 14 15 17 16 15 14 14 14 14 14 14 14 14 15 14 14 13 13 13 12 13 13 14 15 15 15 15 15 15 15 15 15 15 15 15 15 15 15 14 14
17 18 17 9 8 10 11 14 13 15 16 16 16 15 14 13 14 13 13 13 14 14 14 14 14 13 13 12 12 12 12 12 13 13 14 15 15 15 15 15 15 15 15 14 14 14 14 14 13
17 17 15 9 11 12 13 14 14 13 16 16 15 13 14 13 12 12 13 14 15 14 14 14 14 14 13 13 14 11 11 12 13 13 13 13 13 14 14 15 15 15 14 14 14 14 14 13 13
17 16 9 10 12 13 13 14 14 12 13 14 15 14 13 13 13 13 13 14 14 14 13 13 14 14 13 14 13 13 12 12 13 13 13 13 13 13 13 13 14 14 14 14 13 13 13 13 14
15 13 9 10 11 12 13 14 14 13 14 15 14 13 12 12 14 13 13 13 13 14 13 13 14 14 13 12 12 12 12 14 12 12 12 12 12 12 12 12 13 13 13 13 13 13 13 14 14
11 8 10 10 10 12 13 14 13 13 13 14 14 13 12 13 13 13 13 13 13 13 13 13 13 13 13 13 13 12 12 12 12 13 12 11 11 10 11 12 13 13 13 13 13 12 12 13 12
14 9 12 10 11 12 12 14 13 13 13 14 14 11 11 12 12 13 13 14 13 13 13 12 12 12 12 12 13 12 12 12 12 12 12 12 11 11 11 12 13 13 13 12 12 13 12 12 12
13 7 9 11 12 11 12 12 13 13 13 13 13 12 11 11 12 13 14 14 14 13 12 12 12 12 12 11 12 12 13 12 12 12 12 11 12 14 12 12 12 10 10 11 12 11 12 12 12
10 7 11 10 11 11 11 11 11 12 12 12 12 12 11 11 12 12 12 12 12 12 12 12 12 12 12 12 12 12 12 12 12 12 11 11 10 11 13 14 12 10 9 8 9 10 11 12 12
11 9 10 11 11 11 11 11 11 11 10 11 11 11 11 11 12 12 11 11 10 11 11 11 12 12 12 12 12 12 12 12 12 12 12 12 10 11 11 11 11 12 10 8 7 10 11 12 12
9 10 11 11 11 11 11 11 11 10 11 11 11 10 10 10 10 10 10 10 10 10 10 11 11 11 12 11 12 12 12 11 12 12 12 11 10 10 11 11 10 9 11 6 5 9 10 11 11
9 9 11 11 11 11 11 10 10 10 11 11 10 10 10 9 9 9 9 9 9 10 10 10 10 11 11 11 11 11 10 11 11 11 12 11 9 10 11 10 9 10 9 9 6 8 9 10 10
9 9 9 10 10 11 10 10 10 10 10 11 10 10 10 9 9 9 9 9 9 8 9 9 10 10 10 10 10 9 9 9 10 10 11 11 9 9 9 9 9 9 10 9 8 6 8 9 9
9 9 9 9 9 10 10 10 10 10 10 10 10 9 9 8 8 8 7 7 7 8 8 8 9 9 9 9 8 8 8 9 9 9 10 10 9 9 9 8 9 8 9 9 8 5 7 8 8
7 6 7 8 10 10 10 8 9 10 10 10 9 8 7 7 7 7 7 6 7 7 7 7 8 8 8 7 7 7 8 9 9 9 9 10 10 9 9 8 8 8 8 7 5 5 6 7 7
4 7 8 9 8 8 7 7 9 10 9 9 8 6 5 6 7 7 6 5 6 6 6 6 6 7 7 6 6 6 7 8 8 8 8 8 9 9 8 8 7 7 7 7 6 5 6 6 6
8 7 7 7 6 6 6 6 6 8 7 7 6 5 5 6 6 5 5 5 5 5 5 5 5 4 4 5 6 7 7 8 8 8 8 8 8 8 8 8 8 8 7 7 6 5 4 5 6
6 7 6 6 7 6 6 4 4 6 6 5 4 4 5 5 4 4 4 5 5 6 5 5 4 3 3 4 6 7 7 7 7 7 8 8 8 7 8 8 8 8 7 7 6 4 4 4 4
6 6 5 5 6 5 4 4 3 4 4 4 4 4 4 4 4 4 4 4 4 4 5 4 4 4 4 4 5 6 6 6 6 7 7 7 7 7 6 7 7 7 7 7 6 4 4 4 4
5 5 5 5 4 4 3 5 3 5 5 5 4 4 4 4 4 4 4 3 4 4 3 3 3 4 4 4 5 5 5 6 6 6 6 6 6 6 6 5 6 6 6 5 5 5 4 3 3
6 5 5 5 4 4 3 2 4 4 4 4 4 4 4 3 3 3 3 3 3 3 3 3 3 3 3 4 3 3 3 4 4 4 5 5 5 5 4 4 5 4 4 4 4 3 3 3 3
6 5 4 5 3 3 3 0 3 3 4 2 4 4 4 3 3 3 3 3 2 2 2 2 3 3 3 3 3 2 2 2 2 2 3 4 4 3 4 4 3 4 3 3 2 2 2 3 3
5 4 2 1 1 -4 3 3 3 3 3 2 3 4 4 4 4 3 3 2 2 2 2 2 2 2 2 2 2 2 2 1 2 2 1 2 2 3 2 3 3 3 5 2 1 1 2 2 2
4 2 -3 -2 -3 -2 2 2 3 3 2 2 1 3 3 3 2 2 2 2 2 2 2 1 1 1 1 2 2 2 2 2 2 1 1 1 1 1 2 2 2 2 2 2 1 0 1 1 1
3 2 -3 -1 -2 -1 1 -0 4 2 2 2 2 1 2 2 1 2 1 2 2 1 1 1 1 1 1 1 1 1 1 1 1 1 2 1 2 1 1 1 2 1 1 1 1 -0 0 1 1
4 -0 2 -5 -9 -5 -0 2 3 1 -1 1 0 1 1 1 1 1 2 1 1 1 0 0 0 -0 0 -0 -1 -0 -0 0 -0 0 1 2 2 1 1 1 1 1 1 0 1 -0 -0 -0 -0
4 2 -0 -5 -3 -4 -2 1 2 1 -1 -2 -2 -1 0 0 1 1 1 0 -0 0 0 1 -0 -1 -2 -2 -1 -2 -1 0 -1 -0 -0 1 1 2 2 2 1 1 1 0 0 -0 -0 -0 -0
-0 -2 -1 -1 -2 -4 -5 -2 -0 -1 -1 -3 -2 -0 -0 -0 -0 -0 -0 -0 -0 -0 0 -0 -1 -2 -2 -1 -1 -1 0 -0 -1 -1 -1 -0 -0 1 1 2 2 1 0 0 0 0 0 0 1
2 2 -1 -4 -3 -4 -4 -2 -1 -2 -2 -2 -1 -1 -1 -1 -1 -1 -1 -2 -2 -2 -2 -1 -1 -2 -1 -1 -1 -1 -1 -1 -1 -1 -1 -1 -1 -0 0 1 1 1 1 1 1 1 1 0 1
Height
1517 1516 1515 1515 1528 1541 1555 1549 1544 1542 1538 1534 1533 1532 1536 1537 1539 1544 1535 1531 1527 1523 1520 1517 1511 1501 1500 1504 1510 1512 1511 1510 1508 1509 1509 1508 1509 1510 1510 1510 1510 1509 1510 1511 1511 1511 1512 1513 1514
1517 1517 1517 1516 1542 1556 1560 1546 1544 1543 1540 1535 1535 1536 1535 1539 1539 1538 1532 1531 1527 1524 1521 1520 1515 1512 1507 1511 1507 1510 1509 1509 1508 1508 1507 1508 1507 1508 1509 1509 1509 1509 1509 1509 1510 1510 1510 1512 1513
1518 1518 1519 1528 1549 1560 1556 1545 1543 1541 1539 1536 1536 1538 1539 1543 1542 1540 1537 1533 1529 1524 1520 1517 1514 1512 1508 1510 1510 1508 1505 1504 1504 1507 1509 1508 1507 1507 1509 1508 1509 1509 1508 1509 1509 1510 1510 1511 1512
1520 1521 1525 1543 1548 1546 1545 1544 1544 1541 1541 1539 1539 1541 1545 1546 1543 1542 1538 1533 1529 1525 1522 1518 1514 1512 1512 1512 1508 1507 1500 1501 1503 1503 1503 1504 1506 1507 1506 1507 1506 1507 1507 1507 1507 1508 1508 1510 1511
1521 1523 1541 1551 1548 1544 1543 1543 1544 1544 1544 1542 1540 1543 1545 1545 1544 1542 1537 1533 1529 1526 1523 1520 1517 1514 1514 1513 1510 1504 1506 1503 1501 1503 1502 1500 1501 1503 1503 1506 1505 1505 1505 1505 1505 1506 1507 1509 1510
1524 1528 1550 1558 1551 1548 1545 1543 1544 1545 1545 1544 1544 1544 1547 1546 1543 1540 1538 1534 1530 1527 1523 1521 1518 1517 1515 1515 1510 1502 1504 1501 1502 1502 1489 1498 1499 1498 1498 1499 1500 1502 1502 1501 1501 1503 1506 1508 1509
1528 1537 1552 1554 1555 1550 1549 1546 1545 1545 1546 1546 1545 1546 1547 1545 1544 1541 1538 1536 1531 1528 1525 1520 1517 1513 1510 1508 1506 1506 1505 1500 1502 1499 1499 1498 1499 1496 1496 1496 1494 1493 1496 1496 1498 1501 1504 1506 1508
1529 1536 1549 1556 1557 1554 1549 1548 1549 1547 1547 1547 1545 1547 1547 1546 1544 1541 1539 1535 1531 1527 1524 1521 1518 1514 1510 1507 1505 1504 1503 1501 1501 1500 1498 1495 1497 1499 1496 1496 1488 1475 1488 1492 1495 1498 1503 1505 1507
1533 1547 1558 1554 1553 1554 1551 1550 1550 1550 1549 1548 1549 1549 1549 1547 1545 1541 1536 1531 1528 1527 1524 1521 1518 1515 1511 1508 1506 1506 1504 1501 1500 1500 1498 1497 1493 1494 1497 1497 1491 1475 1482 1490 1493 1496 1500 1504 1507
1535 1552 1550 1551 1551 1555 1554 1552 1551 1550 1549 1549 1550 1550 1549 1546 1543 1539 1535 1531 1527 1524 1523 1521 1518 1514 1511 1508 1506 1505 1503 1503 1500 1499 1499 1495 1492 1491 1493 1494 1497 1494 1485 1489 1495 1498 1501 1504 1506
1540 1549 1548 1551 1552 1553 1554 1554 1553 1552 1552 1551 1550 1550 1548 1546 1543 1539 1536 1534 1529 1525 1522 1519 1516 1513 1511 1508 1506 1504 1502 1502 1500 1499 1497 1493 1493 1492 1487 1491 1489 1490 1496 1487 1495 1499 1501 1503 1504
1548 1549 1549 1550 1552 1553 1554 1554 1553 1553 1554 1553 1552 1550 1548 1546 1543 1540 1537 1533 1529 1525 1522 1518 1515 1513 1510 1508 1506 1504 1503 1501 1500 1499 1496 1494 1493 1492 1490 1491 1488 1490 1489 1490 1494 1500 1503 1503 1504
1550 1552 1552 1553 1554 1553 1554 1555 1554 1553 1553 1552 1552 1550 1548 1546 1543 1541 1539 1535 1531 1526 1521 1518 1514 1511 1509 1507 1505 1503 1503 1502 1501 1499 1497 1494 1494 1494 1490 1487 1489 1489 1489 1488 1495 1500 1504 1504 1504
1551 1552 1552 1552 1553 1555 1555 1555 1554 1555 1554 1553 1552 1550 1548 1546 1544 1541 1538 1533 1529 1526 1522 1517 1514 1510 1507 1506 1504 1502 1503 1502 1501 1499 1498 1495 1494 1493 1491 1489 1490 1490 1490 1491 1492 1500 1505 1503 1504
1551 1553 1552 1553 1554 1556 1556 1556 1557 1555 1554 1554 1552 1550 1549 1547 1546 1543 1540 1535 1530 1525 1521 1517 1514 1510 1507 1504 1504 1504 1503 1501 1500 1499 1497 1496 1494 1494 1493 1491 1491 1491 1490 1491 1493 1499 1504 1503 1503
1554 1558 1563 1559 1557 1558 1557 1563 1556 1555 1555 1554 1552 1550 1549 1548 1547 1545 1541 1536 1532 1527 1522 1518 1514 1511 1508 1505 1505 1504 1502 1501 1500 1498 1498 1497 1495 1495 1495 1493 1493 1490 1491 1492 1494 1497 1501 1503 1503
1562 1565 1567 1564 1564 1563 1563 1562 1557 1556 1553 1551 1550 1549 1550 1551 1549 1547 1543 1538 1533 1528 1523 1519 1515 1511 1508 1506 1505 1503 1502 1501 1499 1499 1498 1498 1496 1497 1495 1494 1493 1490 1491 1493 1494 1497 1499 1501 1502
1563 1567 1568 1570 1571 1566 1566 1563 1555 1555 1552 1550 1549 1550 1552 1552 1550 1547 1544 1540 1536 1531 1526 1521 1516 1512 1509 1507 1505 1503 1501 1501 1499 1498 1498 1497 1497 1496 1495 1494 1494 1492 1492 1492 1493 1494 1495 1497 1501
1564 1567 1571 1570 1569 1569 1568 1567 1562 1556 1554 1553 1553 1554 1553 1553 1552 1550 1546 1542 1538 1532 1527 1522 1518 1515 1511 1508 1506 1504 1502 1501 1499 1498 1496 1496 1495 1492 1492 1492 1491 1492 1490 1492 1492 1493 1494 1495 1500
1566 1569 1573 1571 1568 1570 1570 1566 1563 1559 1559 1559 1558 1557 1557 1556 1555 1552 1548 1543 1538 1534 1529 1524 1520 1517 1514 1511 1508 1505 1503 1501 1498 1497 1494 1493 1493 1491 1488 1490 1488 1486 1488 1490 1488 1490 1493 1495 1498
1569 1569 1572 1573 1571 1572 1571 1566 1566 1561 1561 1561 1561 1561 1559 1557 1556 1554 1550 1546 1542 1537 1532 1528 1523 1519 1516 1514 1510 1507 1504 1501 1499 1496 1495 1492 1490 1490 1489 1488 1486 1485 1486 1487 1486 1488 1492 1494 1496
1566 1567 1568 1569 1574 1580 1576 1593 1568 1564 1564 1564 1563 1560 1560 1559 1558 1556 1553 1549 1545 1541 1538 1533 1528 1523 1518 1515 1511 1508 1505 1502 1499 1496 1494 1492 1490 1489 1488 1484 1484 1485 1484 1486 1487 1489 1491 1493 1495
1566 1567 1569 1569 1575 1580 1582 1594 1571 1566 1569 1568 1564 1563 1561 1561 1559 1557 1555 1552 1549 1545 1541 1537 1533 1528 1523 1519 1515 1512 1508 1505 1502 1498 1494 1492 1490 1489 1488 1485 1481 1482 1484 1486 1489 1489 1490 1492 1493
1565 1568 1574 1579 1582 1618 1584 1584 1577 1573 1572 1571 1566 1564 1562 1561 1559 1558 1556 1555 1552 1549 1545 1541 1536 1530 1526 1523 1519 1515 1512 1507 1505 1500 1497 1493 1491 1489 1487 1486 1484 1482 1484 1484 1489 1491 1490 1492 1493
1567 1575 1613 1607 1617 1614 1585 1584 1574 1572 1572 1571 1568 1566 1563 1563 1562 1559 1558 1556 1553 1550 1547 1544 1540 1534 1529 1526 1522 1519 1516 1513 1508 1504 1499 1496 1493 1491 1489 1487 1484 1483 1485 1488 1487 1489 1490 1490 1491
1571 1577 1609 1619 1621 1606 1588 1594 1572 1573 1572 1570 1569 1568 1565 1562 1561 1558 1556 1554 1552 1550 1547 1544 1542 1539 1533 1529 1526 1523 1519 1516 1513 1510 1506 1500 1497 1494 1492 1489 1486 1486 1485 1486 1485 1487 1487 1489 1490
1574 1588 1582 1612 1636 1625 1592 1575 1570 1572 1570 1569 1567 1564 1562 1562 1559 1556 1553 1552 1551 1549 1547 1543 1541 1541 1536 1532 1529 1526 1522 1518 1515 1512 1509 1504 1499 1497 1493 1491 1489 1488 1487 1486 1483 1486 1485 1488 1487
1571 1578 1594 1611 1627 1632 1599 1582 1569 1571 1572 1570 1566 1565 1563 1561 1557 1554 1551 1549 1549 1547 1545 1543 1542 1540 1537 1534 1530 1527 1524 1521 1517 1514 1510 1506 1504 1500 1497 1493 1491 1492 1490 1487 1486 1486 1486 1487 1488
1584 1588 1588 1592 1603 1623 1626 1589 1564 1569 1572 1569 1567 1565 1562 1560 1556 1552 1549 1546 1546 1546 1543 1541 1541 1539 1536 1534 1530 1527 1523 1521 1518 1515 1512 1509 1505 1502 1499 1494 1493 1491 1489 1487 1487 1487 1485 1486 1486
1572 1573 1580 1606 1607 1605 1608 1584 1561 1565 1568 1566 1564 1562 1561 1559 1555 1550 1546 1545 1545 1544 1542 1541 1539 1538 1536 1532 1530 1528 1524 1520 1517 1515 1512 1509 1506 1502 1499 1496 1494 1491 1489 1487 1488 1486 1485 1483 1483
Wind_Speed
3 2 1 2 5 6 3 3 2 6 7 7 7 8 8 10 3 4 26 22 24 25 23 22 21 21 33 25 10 11 10 10 10 11 11 10 10 11 11 10 10 11 12 10 9 10 11 10 9
3 2 4 4 5 4 3 2 3 2 7 8 8 5 9 3 20 9 27 26 21 21 21 21 21 19 17 35 30 9 10 9 7 9 11 11 12 12 11 10 11 12 14 11 11 12 13 11 10
4 5 4 4 4 3 3 1 4 7 14 13 3 10 5 12 13 16 20 22 19 20 23 22 21 21 17 15 32 29 14 7 5 6 9 12 12 13 12 12 12 13 15 12 12 14 14 12 11
1 4 7 5 5 1 4 1 2 5 11 16 5 5 6 11 10 15 18 22 24 23 22 21 22 20 17 18 23 33 16 12 10 9 7 8 11 13 14 15 15 15 15 15 14 15 14 12 11
5 4 5 4 2 2 1 2 5 5 2 11 10 2 4 12 9 13 20 23 25 25 22 20 18 20 20 22 18 14 24 21 18 13 14 9 9 12 13 17 18 18 18 19 19 16 12 12 12
5 3 5 2 3 1 1 7 4 5 6 9 7 1 3 10 13 18 19 22 22 23 23 20 17 16 16 14 19 18 20 23 25 20 11 6 10 11 8 15 21 21 22 24 20 15 14 14 13
6 4 4 4 5 1 3 3 5 3 5 6 6 2 3 13 16 18 20 19 20 20 19 20 19 18 17 15 13 11 13 14 18 20 28 36 34 32 42 21 22 28 28 28 21 18 14 15 15
4 5 4 5 1 1 6 2 2 7 2 4 5 4 4 17 19 20 20 20 20 21 21 21 19 16 16 16 12 13 12 11 13 16 16 22 34 34 30 29 24 40 31 25 23 19 16 15 15
3 5 2 2 0 2 5 3 4 3 5 4 4 6 8 13 19 25 26 25 24 22 24 24 22 19 16 15 13 13 12 12 12 12 11 11 12 29 17 22 1 12 18 20 18 17 16 17 15
6 4 3 2 3 1 3 4 6 6 10 2 4 7 10 17 25 28 28 29 29 30 29 25 22 21 19 16 13 11 12 11 11 13 13 11 10 3 7 10 16 8 12 17 16 17 17 15 14
3 4 4 2 3 3 2 4 7 5 3 4 6 10 12 18 23 25 27 29 33 34 32 27 21 19 18 18 16 12 10 10 11 11 12 12 9 4 2 4 11 20 18 20 15 15 16 15 14
5 6 3 2 2 4 5 6 9 3 3 3 7 7 10 15 19 25 28 31 34 32 30 27 23 19 18 17 16 14 10 10 11 10 11 10 6 5 6 11 11 10 15 14 11 13 15 15 13
5 4 3 4 8 5 4 5 4 8 10 5 4 6 9 13 17 21 24 29 32 31 30 27 24 21 18 17 15 14 11 10 9 8 8 8 3 4 6 7 12 7 15 20 11 10 13 14 13
2 3 6 5 4 2 3 3 5 5 4 5 5 7 10 13 18 22 27 32 33 30 28 27 24 21 18 16 13 13 13 14 10 7 6 6 4 8 6 5 7 11 13 18 15 9 12 13 12
2 4 4 12 6 4 6 3 2 5 5 5 8 9 10 12 15 23 28 30 31 30 28 27 25 22 18 16 11 10 13 16 13 10 6 5 2 4 7 5 4 9 11 12 16 14 11 12 12
5 5 4 7 10 7 6 5 3 7 10 12 14 10 8 9 16 22 27 31 30 29 28 26 25 22 17 15 12 13 11 13 13 13 9 5 1 4 3 7 6 6 6 10 17 18 13 11 11
7 3 5 4 11 6 10 7 6 21 22 20 16 5 3 9 15 23 27 27 28 28 28 26 25 22 16 14 12 13 13 10 12 12 12 10 6 6 5 5 6 8 9 10 12 18 16 11 11
3 3 3 2 7 6 4 8 12 22 14 14 8 1 6 12 19 22 23 25 26 26 25 24 23 23 19 14 11 11 12 10 11 11 13 16 14 13 11 9 9 8 9 9 15 16 18 13 11
5 3 1 2 1 4 2 7 10 15 15 15 7 5 8 13 17 20 21 23 23 24 25 25 24 23 22 17 13 11 12 10 9 14 14 15 19 19 16 18 16 15 16 12 14 15 17 18 13
4 2 2 4 2 2 6 8 5 9 7 11 7 7 10 13 16 18 19 20 22 24 24 24 23 20 20 17 13 13 9 10 12 14 9 12 15 17 19 21 20 19 17 19 14 16 19 19 16
3 5 1 3 6 3 4 4 6 2 5 8 8 7 9 13 17 18 18 19 20 23 26 26 24 20 18 18 14 12 11 10 12 12 13 10 12 10 17 17 16 15 18 19 17 17 17 21 22
2 3 2 2 3 1 4 3 5 5 6 10 12 9 10 12 15 17 18 17 18 19 20 23 25 24 20 17 16 14 12 12 10 10 10 11 10 9 10 13 13 11 14 14 15 15 16 16 18
2 1 2 1 3 2 5 4 6 4 6 7 17 17 12 12 15 17 17 15 16 17 19 20 21 23 25 25 24 20 20 17 13 12 8 6 7 8 8 9 8 11 12 12 16 17 17 16 15
2 3 5 4 3 3 3 3 5 3 3 6 21 23 13 14 15 15 15 15 14 14 17 18 20 22 24 26 26 27 25 20 21 19 18 15 11 8 7 8 7 5 12 13 16 18 17 15 14
5 5 4 6 5 4 0 1 6 2 5 4 11 19 16 14 17 17 16 17 16 15 16 18 19 21 23 24 25 26 25 25 22 22 22 22 15 14 13 10 9 5 3 11 15 17 19 19 15
4 3 5 4 1 4 2 4 2 6 15 19 22 22 22 24 25 21 19 18 17 14 13 14 16 20 23 26 27 26 25 24 23 23 23 17 19 17 13 14 11 9 7 6 9 15 19 21 16
1 3 2 6 2 3 2 5 3 4 10 19 23 26 27 26 29 25 23 18 14 12 11 12 13 17 21 25 28 27 25 23 21 20 18 21 21 16 13 11 9 10 11 9 7 11 11 11 12
2 4 4 4 1 5 4 5 5 2 6 7 19 22 24 24 26 26 26 16 12 10 10 14 19 21 28 34 28 24 22 21 20 20 20 17 16 16 15 11 8 9 9 11 9 8 11 12 13
1 1 5 4 4 4 2 5 5 7 3 6 14 20 21 23 24 26 23 17 14 11 10 20 26 23 20 18 17 15 16 18 19 18 18 18 17 14 15 14 10 7 9 8 10 11 8 11 11
3 5 5 4 5 3 2 6 7 9 5 13 16 19 21 20 24 26 22 10 9 10 17 17 12 13 17 20 18 16 16 17 18 17 16 17 17 16 16 15 14 13 10 8 8 11 14 10 10
Wind_Direction
13 11 359 53 58 65 31 16 264 345 353 335 16 85 106 64 337 308 341 342 354 354 343 345 352 337 320 346 308 279 253 226 221 230 224 217 217 216 213 208 208 199 194 199 195 183 183 179 183
54 45 54 74 80 77 274 277 340 345 328 340 84 85 39 23 18 350 354 359 352 346 349 350 340 334 329 329 327 290 276 267 244 236 242 236 228 226 222 222 219 211 202 218 204 185 185 185 189
47 45 49 82 103 123 154 242 300 2 27 18 64 52 39 342 2 354 360 356 352 346 348 349 349 352 15 353 312 340 277 282 252 278 261 253 246 242 239 237 230 224 216 211 203 188 187 185 189
85 45 64 73 99 50 143 352 345 17 18 19 36 61 96 8 4 5 359 359 351 349 350 352 350 351 341 339 315 297 324 317 290 280 283 261 265 262 251 246 237 230 222 205 195 181 182 187 196
51 54 57 70 45 102 35 59 69 61 42 13 37 68 86 4 16 357 3 355 355 352 348 351 357 346 351 356 339 323 318 336 301 274 259 249 251 241 246 265 253 233 222 203 186 190 198 199 199
49 59 68 110 134 278 42 52 91 53 21 18 27 104 80 11 354 355 349 350 349 348 349 346 350 352 357 5 353 347 334 319 316 313 330 338 7 357 301 298 251 238 219 202 194 186 188 199 198
97 73 140 123 172 60 351 40 53 68 25 8 352 87 233 348 356 347 340 347 354 350 347 351 355 346 348 4 11 11 346 341 323 320 306 310 322 344 347 297 258 225 219 204 190 182 186 196 201
74 87 66 22 170 36 341 46 5 24 29 38 13 22 349 343 345 341 330 337 352 357 356 355 354 346 344 351 357 354 354 348 344 328 315 342 314 317 336 333 306 195 206 193 182 188 188 195 204
36 62 86 33 7 196 357 36 28 345 7 39 61 22 344 336 335 331 327 325 327 343 351 350 347 344 337 333 337 339 341 342 349 351 352 313 333 331 344 337 244 70 137 178 173 172 187 203 206
63 89 147 204 131 105 343 6 347 354 342 29 18 350 336 333 335 340 346 344 340 340 342 341 338 337 332 328 326 322 328 329 338 332 318 311 308 4 7 4 286 313 164 154 158 176 190 200 211
60 126 161 60 67 46 340 354 346 352 357 348 345 343 330 329 336 343 346 344 342 339 335 338 332 328 327 322 319 315 318 322 333 330 328 326 305 276 13 256 238 265 272 156 162 183 193 201 208
85 62 68 107 25 353 350 332 334 1 314 339 340 329 325 335 343 346 344 342 340 339 338 337 332 322 323 321 313 312 311 316 325 331 334 329 312 294 293 283 274 235 248 151 150 187 195 198 200
54 4 16 328 312 317 316 327 311 337 20 12 313 311 332 339 343 340 340 339 343 343 342 341 338 327 319 320 314 307 304 300 303 314 325 333 337 289 318 312 253 221 200 170 164 191 201 199 197
7 335 327 344 342 24 347 323 345 12 26 9 353 336 327 329 336 336 339 346 345 348 346 344 342 334 325 325 322 318 307 298 290 287 302 309 280 279 323 291 237 208 213 194 176 190 203 196 193
24 45 33 20 22 42 345 35 24 7 34 34 356 324 314 327 339 346 347 346 346 346 346 346 346 341 331 328 330 330 318 301 291 282 265 266 209 253 307 235 194 194 185 203 183 175 197 193 184
52 51 53 349 11 17 27 277 346 358 336 331 328 311 296 340 348 346 346 347 347 345 347 347 345 343 334 330 332 334 315 295 304 289 244 227 270 259 218 189 205 195 203 202 185 180 181 189 192
19 82 32 15 32 12 41 280 288 320 322 321 328 300 343 359 345 350 350 350 350 350 348 349 347 347 342 335 337 333 324 302 282 291 263 246 219 224 201 207 196 170 169 185 195 191 191 185 193
47 38 40 3 329 7 315 293 315 341 341 342 345 85 24 359 355 354 352 352 353 353 352 350 353 353 359 353 328 315 318 304 293 262 263 252 245 245 237 232 225 179 180 193 194 193 184 185 200
112 102 335 239 224 346 10 292 317 350 12 22 64 48 16 2 360 357 357 355 357 358 357 359 359 3 359 354 344 317 315 308 314 282 275 266 261 247 249 247 235 221 215 208 203 193 188 180 185
71 107 351 294 275 21 343 308 313 4 15 32 37 23 8 0 358 360 359 1 7 9 11 7 6 5 2 353 333 339 340 327 323 312 292 278 275 265 255 250 239 235 225 217 213 207 195 184 178
61 120 125 218 324 82 330 334 341 342 25 27 24 14 4 357 356 359 2 7 11 16 20 19 14 7 5 355 343 319 306 313 304 310 311 315 293 282 290 261 251 243 233 218 216 209 214 202 191
116 184 184 261 55 329 2 267 323 347 355 21 7 350 342 353 0 356 356 359 9 17 19 22 24 26 21 10 13 15 16 8 357 344 335 326 324 304 267 251 252 236 227 223 214 209 209 213 213
177 179 316 29 94 71 357 71 266 4 27 340 358 354 343 346 352 350 344 347 359 6 12 18 23 29 32 32 30 28 31 31 17 12 1 359 349 332 319 304 269 253 232 223 220 214 210 213 213
322 97 50 49 77 42 258 94 287 19 300 333 357 5 344 333 332 335 334 330 339 355 4 12 19 28 31 31 31 32 31 24 5 7 20 16 10 0 348 330 326 286 263 234 223 222 225 228 221
55 49 345 1 15 205 262 39 247 2 22 13 357 2 357 337 326 326 327 325 322 337 352 3 12 20 26 26 27 29 30 29 25 17 20 9 13 12 9 11 24 353 308 283 247 237 233 236 239
49 120 147 222 273 273 328 229 207 79 64 47 39 35 26 15 360 325 310 311 312 327 344 351 2 10 17 19 18 19 21 24 27 26 13 16 8 2 3 5 18 359 350 291 261 250 241 250 228
238 58 164 100 68 42 253 283 85 81 33 29 13 8 5 1 360 343 332 293 303 319 335 357 6 4 5 1 356 359 3 7 13 19 20 13 10 10 356 348 2 344 348 330 302 273 238 226 210
104 150 66 19 12 298 284 278 232 60 11 3 11 5 358 352 345 343 342 291 283 292 312 325 337 336 335 327 332 348 346 342 357 2 4 11 10 7 7 3 333 335 337 345 322 292 266 242 228
30 46 56 110 146 187 279 251 192 132 120 4 359 360 354 348 342 338 333 309 271 286 305 313 319 306 328 324 334 333 329 334 341 354 2 3 7 10 3 10 8 327 310 328 318 306 287 255 241
236 175 134 126 247 236 156 273 133 145 117 12 358 352 349 353 344 343 339 315 264 295 319 326 335 344 342 338 334 329 326 325 326 335 350 358 4 8 12 9 6 2 350 320 291 302 308 283 264